FW6247 Weather Reports


Display with metric or nautical units.
time (UTC)temp
F
wind
direction
speed
MPH
gust
MPH
rain 1hr
in
rain 24hr
in
rain mn
in
humidity
%
barometer
mb
20260508050030 55 67 0.0 3.0 0.00 0.00 0.00 38 1017.3
20260508044606 56 73 2.0 4.0 0.00 0.00 0.00 38 1017.3
20260508043028 56 74 0.0 3.0 0.00 0.00 0.00 37 1017.2
20260508041530 56 63 0.0 4.0 0.00 0.00 0.00 37 1017.0
20260508040105 57 19 0.0 2.0 0.00 0.00 0.00 36 1016.8
20260508034532 57 55 0.0 2.0 0.00 0.00 0.00 35 1016.6
20260508033030 58 17 0.0 4.0 0.00 0.00 0.00 34 1016.5
20260508030032 62 341 0.0 7.0 0.00 0.00 0.00 31 1016.3
20260508024531 64 350 2.0 7.0 0.00 0.00 0.00 30 1016.3
20260508023029 66 1 1.0 6.0 0.00 0.00 0.00 29 1016.2
20260508021529 68 351 0.0 5.0 0.00 0.00 0.00 28 1016.2
20260508020104 68 344 0.0 6.0 0.00 0.00 0.00 28 1016.3
20260508014531 67 343 0.0 6.0 0.00 0.00 0.00 28 1016.3
20260508013031 69 337 2.0 9.0 0.00 0.00 0.00 27 1016.3
20260508011606 71 319 3.0 13.0 0.00 0.00 0.00 27 1016.3
20260508010030 72 305 4.0 12.0 0.00 0.00 0.00 27 1016.3
20260508004528 72 319 3.0 13.0 0.00 0.00 0.00 28 1016.4
20260508001530 72 310 5.0 18.0 0.00 0.00 0.00 30 1016.3
20260508000033 72 331 3.0 12.0 0.00 0.00 0.00 30 1016.3
20260507234530 71 322 3.0 11.0 0.00 0.00 0.00 31 1016.3
20260507233105 72 325 3.0 12.0 0.00 0.00 0.00 31 1016.4
20260507231532 72 317 4.0 14.0 0.00 0.00 0.00 31 1016.4
20260507230104 72 312 5.0 14.0 0.00 0.00 0.00 33 1016.4
20260507224529 73 313 5.0 14.0 0.00 0.00 0.00 33 1016.6
20260507220033 72 325 3.0 11.0 0.00 0.00 0.00 36 1017.2
20260507214530 71 322 3.0 10.0 0.00 0.00 0.00 37 1017.3
20260507213030 71 324 3.0 11.0 0.00 0.00 0.00 37 1017.3
20260507211541 71 341 2.0 11.0 0.00 0.00 0.00 38 1017.6
20260507204533 71 335 1.0 8.0 0.00 0.00 0.00 38 1018.1
20260507200031 70 28 2.0 7.0 0.00 0.00 0.00 39 1018.3
20260507191529 69 333 1.0 7.0 0.00 0.00 0.00 44 1018.6
20260507190034 67 360 2.0 8.0 0.00 0.00 0.00 47 1018.7
20260507184607 66 10 1.0 5.0 0.00 0.00 0.00 49 1018.9
20260507180113 66 19 2.0 8.0 0.00 0.00 0.00 52 1019.3
20260507174530 66 24 2.0 6.0 0.00 0.00 0.00 55 1019.3
20260507173030 63 2 1.0 7.0 0.00 0.00 0.00 60 1019.4
20260507171533 61 358 2.0 9.0 0.00 0.00 0.00 62 1019.5
20260507164606 61 356 1.0 7.0 0.00 0.00 0.00 68 1019.5
20260507163031 60 270 4.0 10.0 0.00 0.00 0.00 68 1019.4
20260507161539 59 278 4.0 10.0 0.00 0.00 0.00 74 1019.6
20260507160028 57 274 4.0 9.0 0.00 0.00 0.00 82 1019.9
20260507154531 55 255 3.0 7.0 0.00 0.00 0.00 86 1020.0
20260507144610 49 228 0.0 3.0 0.00 0.00 0.00 91 1020.2
20260507143031 47 230 0.0 4.0 0.00 0.00 0.00 91 1020.1
20260507141645 46 185 2.0 4.0 0.00 0.00 0.00 91 1020.0
20260507140106 45 180 0.0 1.0 0.00 0.00 0.00 90 1019.9
20260507134605 44 180 0.0 2.0 0.00 0.00 0.00 90 1019.7
20260507133029 45 67 0.0 1.0 0.00 0.00 0.00 90 1019.7
20260507124530 47 67 1.0 3.0 0.00 0.00 0.00 90 1019.6
20260507123030 47 67 2.0 5.0 0.00 0.00 0.00 90 1019.4
20260507121531 47 61 1.0 5.0 0.00 0.00 0.00 89 1019.4
20260507120030 47 60 1.0 4.0 0.00 0.00 0.00 88 1019.3
20260507113031 47 77 1.0 4.0 0.00 0.00 0.00 86 1019.1
20260507111608 48 133 0.0 3.0 0.00 0.00 0.00 86 1018.9
20260507110029 49 78 1.0 6.0 0.00 0.00 0.00 85 1018.9
20260507104529 50 79 1.0 4.0 0.00 0.00 0.00 85 1018.8
20260507103031 51 81 1.0 6.0 0.00 0.00 0.00 84 1018.8
20260507101603 52 83 0.0 5.0 0.00 0.00 0.00 82 1018.7
20260507100037 53 76 1.0 5.0 0.00 0.00 0.00 79 1018.8
20260507094606 0 0 0.0 0.0 0.00 0.00 0.00 100
20260507093051 54 353 0.0 4.0 0.00 0.00 0.00 77 1018.9
20260507091530 54 50 1.0 4.0 0.00 0.00 0.00 78 1018.8
20260507090031 53 41 0.0 5.0 0.00 0.00 0.00 80 1018.9
20260507083033 54 30 1.0 4.0 0.00 0.00 0.00 80 1019.0
20260507081531 54 55 1.0 5.0 0.00 0.00 0.00 80 1019.0
20260507080030 54 33 2.0 8.0 0.00 0.00 0.00 80 1019.1
20260507074531 54 51 2.0 5.0 0.00 0.00 0.00 79 1019.0
20260507073032 54 21 1.0 5.0 0.00 0.00 0.00 77 1018.9
20260507071532 54 331 0.0 3.0 0.00 0.00 0.00 77 1018.9
20260507070029 54 22 0.0 4.0 0.00 0.00 0.00 77 1019.0
20260507064537 54 15 0.0 2.0 0.00 0.00 0.00 75 1019.1
20260507063031 55 17 0.0 1.0 0.00 0.00 0.00 74 1019.2
20260507061535 55 35 0.0 3.0 0.00 0.00 0.00 70 1019.3
20260507060031 57 7 0.0 4.0 0.00 0.00 0.00 65 1019.4
20260507053031 57 288 3.0 7.0 0.00 0.00 0.00 61 1019.5
20260507051534 57 270 5.0 9.0 0.00 0.00 0.00 59 1019.4